Date,TemperatureHighF,TemperatureAvgF,TemperatureLowF,DewpointHighF,DewpointAvgF,DewpointLowF,HumidityHigh,HumidityAvg,HumidityLow,PressureMaxIn,PressureMinIn,WindSpeedMaxMPH,WindSpeedAvgMPH,GustSpeedMaxMPH,PrecipitationSumIn
2013-11-1,60.3,42.9,33.1,43.4,26.4,14.6,78,57,22,30.14,30.02,10,1,10,0.04
2013-11-2,61.3,40.6,29.1,37.8,22.5,14.4,72,51,19,30.02,29.61,17,3,17,0.04
2013-11-3,49.1,35.7,26.4,18.0,13.3,8.4,58,40,24,29.88,29.73,13,2,13,0.00
2013-11-4,45.5,30.9,21.7,18.8,11.9,6.3,61,46,28,30.02,29.85,10,2,10,0.00
2013-11-5,39.4,31.6,21.2,19.5,10.4,2.7,59,42,26,30.05,29.99,15,3,15,0.00
2013-11-6,54.1,40.9,29.3,29.2,18.0,10.9,67,42,20,30.20,29.99,10,1,10,0.00
2013-11-7,52.5,40.8,33.8,34.7,25.5,16.9,72,55,38,30.17,29.70,15,3,15,0.16
2013-11-8,48.4,39.8,34.0,24.6,21.6,17.9,56,48,37,29.99,29.82,12,4,12,0.00
2013-11-9,52.9,40.1,28.0,27.6,19.2,15.5,66,44,27,30.11,30.05,6,0,6,0.00
2013-11-10,54.5,38.7,31.6,29.1,22.8,18.8,73,54,33,30.08,30.02,6,0,6,0.00
2013-11-11,55.4,38.6,28.4,38.3,24.1,18.1,73,58,30,30.29,30.08,6,0,6,0.00
2013-11-12,45.9,36.5,28.9,31.9,25.4,21.1,73,64,50,30.23,30.17,5,0,5,0.00
2013-11-13,60.1,42.6,34.2,34.5,23.1,12.1,73,49,22,30.20,30.14,10,1,15,0.00
2013-11-14,47.3,34.9,26.4,25.9,16.2,11.3,61,47,30,30.14,29.79,6,1,6,0.00
2013-11-15,44.4,39.2,34.0,15.9,12.1,9.3,43,33,28,29.79,29.37,20,3,20,0.00
2013-11-16,45.3,34.8,30.0,30.6,18.4,12.3,70,52,33,29.58,29.26,14,4,14,0.08
2013-11-17,39.0,35.0,29.7,20.3,16.5,12.3,63,47,34,29.91,29.58,18,4,18,0.00
2013-11-18,52.9,39.3,30.6,18.8,13.8,9.4,46,35,23,29.91,29.70,15,5,15,0.00
2013-11-19,51.8,45.1,39.4,32.5,24.0,18.2,71,44,32,29.70,29.61,14,5,14,0.08
2013-11-20,43.5,35.9,24.8,30.7,11.5,-1.9,66,38,21,30.14,29.64,12,3,12,0.00
2013-11-21,38.7,20.9,10.6,7.2,-1.3,-7.0,55,38,21,30.44,30.14,6,1,6,0.00
2013-11-22,36.0,18.6,7.9,10.5,-0.2,-8.6,59,44,30,30.50,30.41,4,0,5,0.00
2013-11-23,36.5,19.1,8.1,11.9,2.0,-5.1,62,48,31,30.44,30.17,5,0,5,0.00
2013-11-24,39.9,22.7,10.8,16.6,5.8,-1.8,64,49,31,30.17,30.08,6,0,6,0.00
2013-11-25,43.3,27.5,15.8,22.2,10.3,5.3,68,50,30,30.26,30.14,6,0,6,0.00
2013-11-26,41.7,27.9,16.9,24.3,12.0,6.6,66,52,34,30.26,30.05,5,0,5,0.00
2013-11-27,45.0,27.6,18.7,22.8,12.4,8.3,68,54,31,30.05,29.99,5,0,5,0.00
2013-11-28,40.1,23.8,14.5,20.6,10.5,4.6,67,57,40,30.05,29.99,6,0,6,0.00
2013-11-29,41.9,26.6,14.2,23.3,12.8,5.2,69,57,36,30.11,30.02,6,0,6,0.00
2013-11-30,48.0,37.8,32.2,25.8,19.7,16.1,55,48,37,30.11,30.05,7,0,7,0.00